H1 CPF 2 NER 2022 1 14 9 014 01 glonass140 H2 1903001 9140 44299 2022 1 14 0 0 0 2022 1 17 23 45 0 900 1 1 0 0 0 1 H9 10 0 59593 0.00000 0 8711701.687 -19086684.209 14546587.999 10 0 59593 900.00000 0 9716140.235 -20374320.060 11926175.218 10 0 59593 1800.00000 0 10417464.154 -21466416.058 9074672.862 10 0 59593 2700.00000 0 10834371.961 -22307781.676 6047298.825 10 0 59593 3600.00000 0 10996643.920 -22850176.650 2902698.798 10 0 59593 4500.00000 0 10943645.344 -23054402.928 -298181.934 10 0 59593 5400.00000 0 10722433.861 -22892039.384 -3493273.564 10 0 59593 6300.00000 0 10385550.323 -22346745.727 -6620581.323 10 0 59593 7200.00000 0 9988586.413 -21415079.748 -9619386.400 10 0 59593 8100.00000 0 9587631.640 -20106792.223 -12431424.903 10 0 59593 9000.00000 0 9236707.719 -18444585.486 -15002021.837 10 0 59593 9900.00000 0 8985299.054 -16463344.163 -17281157.702 10 0 59593 10800.00000 0 8876084.275 -14208868.652 -19224446.669 10 0 59593 11700.00000 0 8942965.445 -11736162.786 -20794006.941 10 0 59593 12600.00000 0 9209479.220 -9107345.968 -21959205.872 10 0 59593 13500.00000 0 9687658.226 -6389275.855 -22697264.947 10 0 59593 14400.00000 0 10377392.034 -3650979.889 -22993712.357 10 0 59593 15300.00000 0 11266316.102 -961002.236 -22842673.787 10 0 59593 16200.00000 0 12330234.703 1615223.642 -22246995.218 10 0 59593 17100.00000 0 13534061.291 4017867.575 -21218194.712 10 0 59593 18000.00000 0 14833237.684 6194956.466 -19776243.535 10 0 59593 18900.00000 0 16175572.998 8104295.439 -17949180.356 10 0 59593 19800.00000 0 17503425.218 9714976.312 -15772565.575 10 0 59593 20700.00000 0 18756133.425 11008410.643 -13288786.274 10 0 59593 21600.00000 0 19872597.768 11978844.837 -10546225.329 10 0 59593 22500.00000 0 20793897.714 12633336.669 -7598311.216 10 0 59593 23400.00000 0 21465837.241 12991195.561 -4502467.709 10 0 59593 24300.00000 0 21841308.673 13082911.848 -1318984.821 10 0 59593 25200.00000 0 21882374.549 12948622.058 1890165.926 10 0 59593 26100.00000 0 21561979.045 12636176.997 5062547.593 10 0 59593 27000.00000 0 20865216.357 12198896.219 8136480.448 10 0 59593 27900.00000 0 19790102.537 11693105.632 11052246.415 10 0 59593 28800.00000 0 18347818.486 11175563.771 13753251.113 10 0 59593 29700.00000 0 16562414.346 10700886.619 16187120.669 10 0 59593 30600.00000 0 14469988.184 10319080.286 18306712.144 10 0 59593 31500.00000 0 12117373.984 10073285.782 20071018.440 10 0 59593 32400.00000 0 9560394.114 9997830.580 21445951.168 10 0 59593 33300.00000 0 6861749.260 10116668.360 22404987.535 10 0 59593 34200.00000 0 4088633.498 10442271.639 22929670.062 10 0 59593 35100.00000 0 1310172.924 10975022.927 23009950.915 10 0 59593 36000.00000 0 -1405206.920 11703129.204 22644375.439 10 0 59593 36900.00000 0 -3992377.005 12603062.778 21840102.306 10 0 59593 37800.00000 0 -6391958.271 13640509.897 20612760.548 10 0 59593 38700.00000 0 -8552532.744 14771787.652 18986146.437 10 0 59593 39600.00000 0 -10432522.366 15945670.328 16991765.882 10 0 59593 40500.00000 0 -12001659.335 17105549.605 14668230.652 10 0 59593 41400.00000 0 -13241988.373 18191839.047 12060519.219 10 0 59593 42300.00000 0 -14148360.352 19144523.062 9219115.601 10 0 59593 43200.00000 0 -14728397.698 19905744.244 6199041.744 10 0 59593 44100.00000 0 -15001933.587 20422321.096 3058801.193 10 0 59593 45000.00000 0 -14999948.769 20648090.558 -140746.305 10 0 59593 45900.00000 0 -14763050.749 20545976.731 -3337558.122 10 0 59593 46800.00000 0 -14339559.253 20089698.194 -6469607.691 10 0 59593 47700.00000 0 -13783278.454 19265041.087 -9476085.924 10 0 59593 48600.00000 0 -13151049.806 18070643.088 -12298581.806 10 0 59593 49500.00000 0 -12500188.701 16518253.651 -14882219.114 10 0 59593 50400.00000 0 -11885913.272 14632457.804 -17176726.799 10 0 59593 51300.00000 0 -11358874.188 12449873.170 -19137421.949 10 0 59593 52200.00000 0 -10962890.215 10017851.970 -20726085.824 10 0 59593 53100.00000 0 -10732985.770 7392740.680 -21911715.453 10 0 59593 54000.00000 0 -10693814.140 4637768.498 -22671135.754 10 0 59593 54900.00000 0 -10858533.840 1820651.555 -22989459.786 10 0 59593 55800.00000 0 -11228186.508 -988988.107 -22860387.587 10 0 59593 56700.00000 0 -11791603.641 -3722281.855 -22286337.269 10 0 59593 57600.00000 0 -12525847.054 -6313741.691 -21278405.171 10 0 59593 58500.00000 0 -13397165.283 -8703745.988 -19856155.268 10 0 59593 59400.00000 0 -14362426.189 -10840780.211 -18047241.415 10 0 59593 60300.00000 0 -15370965.608 -12683339.227 -15886869.324 10 0 59593 61200.00000 0 -16366773.943 -14201411.838 -13417108.587 10 0 59593 62100.00000 0 -17290928.026 -15377485.859 -10686068.157 10 0 59593 63000.00000 0 -18084164.825 -16207032.374 -7746951.639 10 0 59593 63900.00000 0 -18689487.342 -16698449.813 -4657011.488 10 0 59593 64800.00000 0 -19054691.561 -16872471.646 -1476423.362 10 0 59593 65700.00000 0 -19134706.622 -16761064.357 1732896.408 10 0 59593 66600.00000 0 -18893648.457 -16405863.989 4908505.897 10 0 59593 67500.00000 0 -18306499.489 -15856219.270 7988660.455 10 0 59593 68400.00000 0 -17360343.124 -15166925.778 10913518.596 10 0 59593 69300.00000 0 -16055100.898 -14395748.503 13626306.669 10 0 59593 70200.00000 0 -14403741.434 -13600838.645 16074419.371 10 0 59593 71100.00000 0 -12431952.672 -12838154.445 18210434.892 10 0 59593 72000.00000 0 -10177291.530 -12158995.058 19993025.435 10 0 59593 72900.00000 0 -7687846.813 -11607751.101 21387746.450 10 0 59593 73800.00000 0 -5020471.214 -11219965.834 22367690.510 10 0 59593 74700.00000 0 -2238655.908 -11020787.453 22913994.533 10 0 59593 75600.00000 0 589864.510 -11023876.349 23016191.927 10 0 59593 76500.00000 0 3395678.308 -11230811.995 22672404.148 10 0 59593 77400.00000 0 6110328.870 -11631023.364 21889368.921 10 0 59593 78300.00000 0 8668905.474 -12202245.100 20682305.257 10 0 59593 79200.00000 0 11012486.950 -12911480.016 19074618.081 10 0 59593 80100.00000 0 13090338.609 -13716427.632 17097448.029 10 0 59593 81000.00000 0 14861773.038 -14567319.294 14789074.581 10 0 59593 81900.00000 0 16297598.983 -15409083.554 12194183.213 10 0 59593 82800.00000 0 17381099.211 -16183751.720 9363009.830 10 0 59593 83700.00000 0 18108497.598 -16833003.301 6350377.934 10 0 59593 84600.00000 0 18488896.575 -17300744.985 3214646.154 10 0 59593 85500.00000 0 18543687.827 -17535614.990 16585.751 10 0 59594 0.00000 0 18305461.140 -17493307.398 -3181790.593 10 0 59594 900.00000 0 17816456.933 -17138618.081 -6318428.158 10 0 59594 1800.00000 0 17126627.728 -16447125.343 -9332430.275 10 0 59594 2700.00000 0 16291389.543 -15406433.167 -12165241.662 10 0 59594 3600.00000 0 15369158.024 -14016923.125 -14761787.520 10 0 59594 4500.00000 0 14418773.021 -12291981.512 -17071547.692 10 0 59594 5400.00000 0 13496920.283 -10257690.121 -19049544.356 10 0 59594 6300.00000 0 12655659.164 -7951991.520 -20657223.732 10 0 59594 7200.00000 0 11940161.000 -5423361.858 -21863214.107 10 0 59594 8100.00000 0 11386753.949 -2729044.856 -22643945.086 10 0 59594 9000.00000 0 11021357.353 67080.868 -22984115.474 10 0 59594 9900.00000 0 10858372.264 2896913.287 -22877000.183 10 0 59594 10800.00000 0 10900075.609 5690717.734 -22324589.604 10 0 59594 11700.00000 0 11136544.156 8379789.541 -21337558.142 10 0 59594 12600.00000 0 11546112.032 10899077.839 -19935061.922 10 0 59594 13500.00000 0 12096342.830 13189661.264 -18144369.082 10 0 59594 14400.00000 0 12745475.375 15200972.278 -16000329.394 10 0 59594 15300.00000 0 13444281.934 16892677.157 -13544693.360 10 0 59594 16200.00000 0 14138259.839 18236133.192 -10825294.042 10 0 59594 17100.00000 0 14770063.142 19215362.466 -7895107.859 10 0 59594 18000.00000 0 15282070.422 19827502.005 -4811213.312 10 0 59594 18900.00000 0 15618979.008 20082712.496 -1633668.779 10 0 59594 19800.00000 0 15730314.660 20003550.798 1575667.705 10 0 59594 20700.00000 0 15572749.490 19623834.340 4754352.432 10 0 59594 21600.00000 0 15112129.180 18987047.149 7840579.033 10 0 59594 22500.00000 0 14325123.215 18144356.549 10774385.718 10 0 59594 23400.00000 0 13200428.126 17152325.947 13498822.497 10 0 59594 24300.00000 0 11739472.928 16070421.531 15961055.361 10 0 59594 25200.00000 0 9956597.135 14958418.975 18113386.094 10 0 59594 26100.00000 0 7878694.116 13873819.821 19914168.384 10 0 59594 27000.00000 0 5544334.855 12869386.173 21328603.401 10 0 59594 27900.00000 0 3002408.745 11990896.692 22329400.651 10 0 59594 28800.00000 0 310337.929 11275217.133 22897292.639 10 0 59594 29700.00000 0 -2468061.024 10748765.013 23021394.807 10 0 59594 30600.00000 0 -5264980.180 10426431.341 22699405.068 10 0 59594 31500.00000 0 -8011189.381 10311003.216 21937640.059 10 0 59594 32400.00000 0 -10638666.464 10393110.262 20750908.113 10 0 59594 33300.00000 0 -13083181.143 10651696.284 19162221.652 10 0 59594 34200.00000 0 -15286727.054 11054995.912 17202354.387 10 0 59594 35100.00000 0 -17199702.729 11561975.170 14909251.433 10 0 59594 36000.00000 0 -18782752.404 12124175.786 12327302.849 10 0 59594 36900.00000 0 -20008191.264 12687886.272 9506493.750 10 0 59594 37800.00000 0 -20860956.707 13196549.124 6501446.366 10 0 59594 38700.00000 0 -21339046.541 13593303.422 3370371.526 10 0 59594 39600.00000 0 -21453426.030 13823556.180 173949.101 10 0 59594 40500.00000 0 -21227407.753 13837474.210 -3025841.620 10 0 59594 41400.00000 0 -20695530.090 13592291.207 -6166919.411 10 0 59594 42300.00000 0 -19901981.124 13054332.132 -9188303.342 10 0 59594 43200.00000 0 -18898633.901 12200668.472 -12031296.480 10 0 59594 44100.00000 0 -17742775.322 11020333.142 -14640627.928 10 0 59594 45000.00000 0 -16494624.066 9515042.122 -16965530.681 10 0 59594 45900.00000 0 -15214741.827 7699390.433 -18960734.040 10 0 59594 46800.00000 0 -13961446.883 5600512.025 -20587350.902 10 0 59594 47700.00000 0 -12788338.956 3257215.711 -21813642.227 10 0 59594 48600.00000 0 -11742039.809 718631.252 -22615643.364 10 0 59594 49500.00000 0 -10860244.957 -1957579.709 -22977639.586 10 0 59594 50400.00000 0 -10170168.923 -4707374.623 -22892481.030 10 0 59594 51300.00000 0 -9687449.844 -7462754.378 -22361730.361 10 0 59594 52200.00000 0 -9415559.896 -10154360.827 -21395639.671 10 0 59594 53100.00000 0 -9345746.651 -12714139.505 -20012956.492 10 0 59594 54000.00000 0 -9457507.917 -15077956.787 -18240562.142 10 0 59594 54900.00000 0 -9719579.894 -17188062.189 -16112949.024 10 0 59594 55800.00000 0 -10091396.598 -18995292.799 -13671546.829 10 0 59594 56700.00000 0 -10524958.238 -20460927.587 -10963910.771 10 0 59594 57600.00000 0 -10967028.636 -21558114.003 -8042787.939 10 0 59594 58500.00000 0 -11361567.624 -22272807.325 -4965080.590 10 0 59594 59400.00000 0 -11652294.161 -22604184.006 -1790727.430 10 0 59594 60300.00000 0 -11785270.351 -22564512.634 1418474.288 10 0 59594 61200.00000 0 -11711395.655 -22178489.308 4600081.658 10 0 59594 62100.00000 0 -11388704.677 -21482066.993 7692229.236 10 0 59594 63000.00000 0 -10784370.395 -20520829.937 10634837.646 10 0 59594 63900.00000 0 -9876327.687 -19347983.313 13370783.275 10 0 59594 64800.00000 0 -8654448.281 -18022044.269 15847006.068 10 0 59594 65700.00000 0 -7121217.582 -16604332.713 18015533.943 10 0 59594 66600.00000 0 -5291884.977 -15156368.039 19834404.400 10 0 59594 67500.00000 0 -3194081.427 -13737281.310 21268466.374 10 0 59594 68400.00000 0 -866920.298 -12401351.019 22290048.002 10 0 59594 69300.00000 0 1640381.127 -11195764.884 22879478.700 10 0 59594 70200.00000 0 4270302.472 -10158700.035 23025456.874 10 0 59594 71100.00000 0 6959169.341 -9317800.369 22725257.426 10 0 59594 72000.00000 0 9639562.294 -8689113.142 21984776.064 10 0 59594 72900.00000 0 12242887.154 -8276527.674 20818410.245 10 0 59594 73800.00000 0 14702001.525 -8071738.311 19248779.328 10 0 59594 74700.00000 0 16953790.083 -8054732.177 17306289.217 10 0 59594 75600.00000 0 18941583.363 -8194780.677 15028549.428 10 0 59594 76500.00000 0 20617320.962 -8451892.900 12459653.011 10 0 59594 77400.00000 0 21943370.333 -8778670.033 9649332.345 10 0 59594 78300.00000 0 22893926.287 -9122483.114 6652006.073 10 0 59594 79200.00000 0 23455933.415 -9427882.921 3525734.570 10 0 59594 80100.00000 0 23629493.034 -9639140.838 331103.388 10 0 59594 81000.00000 0 23427737.609 -9702813.765 -2869944.407 10 0 59594 81900.00000 0 22876177.605 -9570224.793 -6015304.875 10 0 59594 82800.00000 0 22011547.708 -9199754.508 -9043915.713 10 0 59594 83700.00000 0 20880200.345 -8558845.406 -11896941.397 10 0 59594 84600.00000 0 19536113.453 -7625633.578 -14518917.796 10 0 59594 85500.00000 0 18038595.765 -6390137.328 -16858833.687 10 0 59595 0.00000 0 16449785.846 -4854950.842 -18871127.672 10 0 59595 900.00000 0 14832048.862 -3035410.749 -20516581.775 10 0 59595 1800.00000 0 13245382.542 -959228.488 -21763091.208 10 0 59595 2700.00000 0 11744938.486 1334401.076 -22586298.544 10 0 59595 3600.00000 0 10378765.149 3796177.510 -22970076.682 10 0 59595 4500.00000 0 9185866.682 6368504.094 -22906851.800 10 0 59595 5400.00000 0 8194659.447 8987654.256 -22397759.293 10 0 59595 6300.00000 0 7421891.245 11586205.859 -21452629.033 10 0 59595 7200.00000 0 6872068.728 14095642.308 -20089799.667 10 0 59595 8100.00000 0 6537416.976 16449012.271 -18335765.024 10 0 59595 9000.00000 0 6398372.619 18583536.954 -16224659.073 10 0 59595 9900.00000 0 6424589.170 20443055.678 -13797589.227 10 0 59595 10800.00000 0 6576411.319 21980207.235 -11101830.994 10 0 59595 11700.00000 0 6806754.822 23158255.413 -8189899.876 10 0 59595 12600.00000 0 7063311.209 23952482.072 -5118519.275 10 0 59595 13500.00000 0 7290982.580 24351089.530 -1947505.297 10 0 59595 14400.00000 0 7434441.870 24355574.953 1261408.747 10 0 59595 15300.00000 0 7440708.726 23980561.926 4445784.038 10 0 59595 16200.00000 0 7261630.580 23253097.563 7543699.397 10 0 59595 17100.00000 0 6856162.850 22211446.259 10494961.116 10 0 59595 18000.00000 0 6192351.041 20903432.372 13242275.095 10 0 59595 18900.00000 0 5248930.550 19384403.087 15732358.157 10 0 59595 19800.00000 0 4016476.466 17714898.282 17916967.038 10 0 59595 20700.00000 0 2498054.969 15958126.133 19753825.450 10 0 59595 21600.00000 0 709349.023 14177350.673 21207432.189 10 0 59595 22500.00000 0 -1321746.914 12433300.529 22249735.785 10 0 59595 23400.00000 0 -3556046.226 10781706.585 22860663.952 10 0 59595 24300.00000 0 -5944465.530 9271070.248 23028499.031 10 0 59595 25200.00000 0 -8429838.602 7940753.965 22750093.432 10 0 59595 26100.00000 0 -10949074.222 6819471.971 22030921.941 10 0 59595 27000.00000 0 -13435569.453 5924242.442 20884970.620 10 0 59595 27900.00000 0 -15821779.568 5259843.075 19334464.709 10 0 59595 28800.00000 0 -18041839.265 4818791.467 17409440.719 10 0 59595 29700.00000 0 -20034127.846 4581849.952 15147170.503 10 0 59595 30600.00000 0 -21743673.083 4519033.056 12591447.630 10 0 59595 31500.00000 0 -23124294.831 4591074.979 9791748.961 10 0 59595 32400.00000 0 -24140399.941 4751295.433 6802286.556 10 0 59595 33300.00000 0 -24768354.109 4947785.516 3680967.231 10 0 59595 34200.00000 0 -24997373.436 5125821.841 488279.093 10 0 59595 35100.00000 0 -24829898.267 5230407.303 -2713874.125 10 0 59595 36000.00000 0 -24281433.191 5208831.312 -5863368.787 10 0 59595 36900.00000 0 -23379859.283 5013141.131 -8899064.151 10 0 59595 37800.00000 0 -22164246.692 4602419.378 -11761988.896 10 0 59595 38700.00000 0 -20683216.668 3944770.512 -14396488.288 10 0 59595 39600.00000 0 -18992921.050 3018931.164 -16751309.289 10 0 59595 40500.00000 0 -17154723.438 1815434.711 -18780602.259 10 0 59595 41400.00000 0 -15232678.828 337279.058 -20444819.394 10 0 59595 42300.00000 0 -13290917.173 -1399932.558 -21711491.926 10 0 59595 43200.00000 0 -11391040.342 -3368385.860 -22555870.587 10 0 59595 44100.00000 0 -9589641.538 -5528970.566 -22961416.384 10 0 59595 45000.00000 0 -7936051.184 -7832679.712 -22920131.591 10 0 59595 45900.00000 0 -6470403.778 -10222436.424 -22432723.965 10 0 59595 46800.00000 0 -5222106.775 -12635273.041 -21508600.408 10 0 59595 47700.00000 0 -4208775.690 -15004772.373 -20165689.587 10 0 59595 48600.00000 0 -3435679.881 -17263669.508 -18430096.441 10 0 59595 49500.00000 0 -2895721.877 -19346505.538 -16335594.841 10 0 59595 50400.00000 0 -2569950.460 -21192221.899 -13922968.053 10 0 59595 51300.00000 0 -2428584.945 -22746586.340 -11239209.839 10 0 59595 52200.00000 0 -2432506.206 -23964348.427 -8336601.968 10 0 59595 53100.00000 0 -2535150.102 -24811033.720 -5271686.760 10 0 59595 54000.00000 0 -2684721.568 -25264301.183 -2104155.454 10 0 59595 54900.00000 0 -2826634.030 -25314806.895 1104324.886 10 0 59595 55800.00000 0 -2906069.205 -24966538.264 4291321.862 10 0 59595 56700.00000 0 -2870547.345 -24236605.514 7394860.926 10 0 59595 57600.00000 0 -2672397.836 -23154500.410 10354636.430 10 0 59595 58500.00000 0 -2271024.624 -21760854.687 13113186.164 10 0 59595 59400.00000 0 -1634870.070 -20105751.757 15617006.174 10 0 59595 60300.00000 0 -742993.985 -18246663.791 17817584.241 10 0 59595 61200.00000 0 413798.771 -16246101.653 19672332.360 10 0 59595 62100.00000 0 1832329.448 -14169076.643 21145401.021 10 0 59595 63000.00000 0 3496941.662 -12080480.187 22208360.698 10 0 59595 63900.00000 0 5379926.989 -10042490.476 22840738.635 10 0 59595 64800.00000 0 7442462.269 -8112113.167 23030401.997 10 0 59595 65700.00000 0 9636019.941 -6338957.235 22773781.245 10 0 59595 66600.00000 0 11904193.265 -4763336.904 22075930.466 10 0 59595 67500.00000 0 14184861.475 -3414776.793 20950424.223 10 0 59595 68400.00000 0 16412606.022 -2310980.677 19419093.237 10 0 59595 69300.00000 0 18521278.732 -1457305.146 17511603.926 10 0 59595 70200.00000 0 20446616.468 -846758.640 15264889.483 10 0 59595 71100.00000 0 22128794.830 -460524.778 12722442.692 10 0 59595 72000.00000 0 23514815.563 -268987.336 9933483.259 10 0 59595 72900.00000 0 24560629.001 -233213.488 6952014.700 10 0 59595 73800.00000 0 25232903.435 -306832.857 3835787.976 10 0 59595 74700.00000 0 25510367.507 -438233.405 645191.157 10 0 59595 75600.00000 0 25384669.273 -572981.738 -2557914.163 10 0 59595 76500.00000 0 24860715.366 -656365.788 -5711387.626 10 0 59595 77400.00000 0 23956475.242 -635952.420 -8754013.041 10 0 59595 78300.00000 0 22702257.788 -464051.561 -11626686.245 10 0 59595 79200.00000 0 21139489.590 -99982.039 -14273564.700 10 0 59595 80100.00000 0 19319045.111 487957.569 -16643156.159 10 0 59595 81000.00000 0 17299197.913 1320897.659 -18689324.960 10 0 59595 81900.00000 0 15143277.958 2408254.719 -20372195.980 10 0 59595 82800.00000 0 12917132.591 3747086.835 -21658938.196 10 0 59595 83700.00000 0 10686497.053 5321976.801 -22524412.191 10 0 59595 84600.00000 0 8514384.267 7105449.814 -22951668.525 10 0 59595 85500.00000 0 6458603.015 9058910.162 -22932286.723 10 0 59596 0.00000 0 4569508.380 11134059.229 -22466547.821 10 0 59596 900.00000 0 2888077.496 13274737.995 -21563436.153 10 0 59596 1800.00000 0 1444393.617 15419115.085 -20240470.526 10 0 59596 2700.00000 0 256598.303 17502133.130 -18523366.667 10 0 59596 3600.00000 0 -669642.168 19458108.451 -16445537.594 10 0 59596 4500.00000 0 -1341135.485 21223376.067 -14047441.228 10 0 59596 5400.00000 0 -1776627.939 22738868.543 -11375787.957 10 0 59596 6300.00000 0 -2005758.838 23952519.924 -8482623.776 10 0 59596 7200.00000 0 -2067550.255 24821393.132 -5424307.498 10 0 59596 8100.00000 0 -2008497.634 25313441.006 -2260402.746 10 0 59596 9000.00000 0 -1880343.821 25408826.650 947492.679 10 0 59596 9900.00000 0 -1737632.477 25100747.600 4136955.997 10 0 59596 10800.00000 0 -1635146.216 24395729.584 7245962.571 10 0 59596 11700.00000 0 -1625339.378 23313378.253 10214098.108 10 0 59596 12600.00000 0 -1755875.249 21885600.325 12983735.515 10 0 59596 13500.00000 0 -2067372.717 20155328.002 15501153.146 10 0 59596 14400.00000 0 -2591457.967 18174801.281 17717572.735 10 0 59596 15300.00000 0 -3349203.526 16003481.070 19590097.237 10 0 59596 16200.00000 0 -4350020.260 13705681.063 21082531.254 10 0 59596 17100.00000 0 -5591048.693 11348017.400 22166069.308 10 0 59596 18000.00000 0 -7057074.916 8996782.261 22819839.934 10 0 59596 18900.00000 0 -8720974.506 6715349.929 23031296.477 10 0 59596 19800.00000 0 -10544666.066 4561721.971 22796448.354 10 0 59596 20700.00000 0 -12480534.921 2586312.042 22119929.349 10 0 59596 21600.00000 0 -14473268.345 830060.498 21014902.378 10 0 59596 22500.00000 0 -16462026.853 -677044.765 19502802.923 10 0 59596 23400.00000 0 -18382862.214 -1916981.519 17612926.026 10 0 59596 24300.00000 0 -20171282.781 -2884200.011 15381864.396 10 0 59596 25200.00000 0 -21764860.454 -3585603.640 12852807.728 10 0 59596 26100.00000 0 -23105771.633 -4040005.339 10074715.871 10 0 59596 27000.00000 0 -24143166.921 -4277083.158 7101380.779 10 0 59596 27900.00000 0 -24835271.115 -4335879.263 3990394.350 10 0 59596 28800.00000 0 -25151125.681 -4262905.491 802041.280 10 0 59596 29700.00000 0 -25071900.549 -4109935.270 -2401862.358 10 0 59596 30600.00000 0 -24591719.587 -3931574.871 -5559162.833 10 0 59596 31500.00000 0 -23717964.249 -3782716.513 -8608571.802 10 0 59596 32400.00000 0 -22471041.484 -3715981.079 -11490855.431 10 0 59596 33300.00000 0 -20883624.397 -3779258.894 -14149986.391 10 0 59596 34200.00000 0 -18999396.211 -4013453.207 -16534236.010 10 0 59596 35100.00000 0 -16871348.947 -4450522.697 -18597185.070 10 0 59596 36000.00000 0 -14559706.970 -5111906.975 -20298633.206 10 0 59596 36900.00000 0 -12129561.408 -6007403.070 -21605388.736 10 0 59596 37800.00000 0 -9648313.675 -7134541.990 -22491923.155 10 0 59596 38700.00000 0 -7183034.362 -8478493.495 -22940877.084 10 0 59596 39600.00000 0 -4797847.562 -10012504.897 -22943407.266 10 0 59596 40500.00000 0 -2551449.639 -11698857.192 -22499367.342 10 0 59596 41400.00000 0 -494865.893 -13490299.888 -21617318.259 10 0 59596 42300.00000 0 1330461.203 -15331905.426 -20314367.547 10 0 59596 43200.00000 0 2894172.501 -17163266.188 -18615840.033 10 0 59596 44100.00000 0 4178019.027 -18920942.267 -16554785.928 10 0 59596 45000.00000 0 5176372.655 -20541057.142 -14171335.657 10 0 59596 45900.00000 0 5896200.135 -21961931.910 -11511913.914 10 0 59596 46800.00000 0 6356502.715 -23126646.729 -8628328.485 10 0 59596 47700.00000 0 6587246.443 -23985420.989 -5576752.166 10 0 59596 48600.00000 0 6627829.984 -24497711.354 -2416618.412 10 0 59596 49500.00000 0 6525156.553 -24633938.772 790546.795 10 0 59596 50400.00000 0 6331393.395 -24376771.417 3982332.834 10 0 59596 51300.00000 0 6101515.475 -23721909.550 7096667.467 10 0 59596 52200.00000 0 5890738.992 -22678339.598 10073030.163 10 0 59596 53100.00000 0 5751954.672 -21268047.402 12853631.241 10 0 59596 54000.00000 0 5733270.366 -19525203.518 15384533.504 10 0 59596 54900.00000 0 5875767.386 -17494855.628 17616694.586 10 0 59596 55800.00000 0 6211565.410 -15231183.693 19506910.110 10 0 59596 56700.00000 0 6762277.378 -12795391.399 21018640.214 10 0 59596 57600.00000 0 7537919.029 -10253322.156 22122704.593 10 0 59596 58500.00000 0 8536318.418 -7672898.856 22797833.858 10 0 59596 59400.00000 0 9743049.776 -5121493.269 23031068.009 10 0 59596 60300.00000 0 11131894.299 -2663333.271 22817995.571 10 0 59596 61200.00000 0 12665808.594 -357054.152 22162829.886 10 0 59596 62100.00000 0 14298360.708 1746506.148 21078321.831 10 0 59596 63000.00000 0 15975574.466 3606178.305 19585511.014 10 0 59596 63900.00000 0 17638106.042 5191923.492 17713320.242 10 0 59596 64800.00000 0 19223663.038 6485826.970 15498000.669 10 0 59596 65700.00000 0 20669566.235 7482583.594 12982437.608 10 0 59596 66600.00000 0 21915348.028 8189456.208 10215329.518 10 0 59596 67500.00000 0 22905279.799 8625709.643 7250255.025 10 0 59596 68400.00000 0 23590723.058 8821544.614 4144644.932 10 0 59596 69300.00000 0 23932206.011 8816576.525 958678.312 10 0 59596 70200.00000 0 23901138.359 8657923.264 -2245876.720 10 0 59596 71100.00000 0 23481091.751 8397982.452 -5406855.631 10 0 59596 72000.00000 0 22668591.188 8091991.839 -8462900.542 10 0 59596 72900.00000 0 21473382.925 7795475.824 -11354650.536 10 0 59596 73800.00000 0 19918166.140 7561686.186 -14025895.975 10 0 59596 74700.00000 0 18037798.097 7439145.510 -16424674.099 10 0 59596 75600.00000 0 15878004.580 7469397.802 -18504284.294 10 0 59596 76500.00000 0 13493648.117 7685062.241 -20224202.934 10 0 59596 77400.00000 0 10946625.222 8108273.379 -21550879.497 10 0 59596 78300.00000 0 8303479.489 8749575.011 -22458398.045 10 0 59596 79200.00000 0 5632829.365 9607315.877 -22928990.733 10 0 59596 80100.00000 0 3002717.430 10667574.191 -22953392.780 10 0 59596 81000.00000 0 477991.383 11904615.758 -22531031.484 10 0 59596 81900.00000 0 -1882174.296 13281867.770 -21670044.981 10 0 59596 82800.00000 0 -4026512.671 14753368.461 -20387129.822 10 0 59596 83700.00000 0 -5913561.599 16265632.485 -18707219.779 10 0 59596 84600.00000 0 -7513144.883 17759854.036 -16663001.676 10 0 59596 85500.00000 0 -8807375.763 19174355.022 -14294277.420 99